Iron Mountain, MI

9:43 AM CDT on April 24, 2017 (GMT -0500)
Ford

Weather History for KIMT - January, 2013

Change the Weather History Date:

Wednesday, January 16, 2013

  Actual Average Record
Temperature  
Mean Temperature 22 °F -  
Max Temperature 28 °F 23 °F 48 °F (1973)
Min Temperature 15 °F 1 °F -30 °F (1984)
Degree Days  
Heating Degree Days 44    
Moisture  
Dew Point 14 °F    
Average Humidity 74    
Maximum Humidity 86    
Minimum Humidity 53    
Precipitation  
Precipitation 0.00 in - - ()
Sea Level Pressure  
Sea Level Pressure 29.76 in    
Wind  
Wind Speed 11 mph (West)    
Max Wind Speed 17 mph    
Max Gust Speed 24 mph    
Visibility 7 miles    
Events Snow    
Averages and records for this station are not official NWS values.
T = Trace of Precipitation, MM = Missing Value Source: NWS Daily Summary

Daily Weather History Graph

Daily Weather History Graph

Search for Another Location

Airport or City:

Trip Planner

Search our weather history database for the weather conditions in past years. The results will help you decide how hot, cold, wet, or windy it might be!

Date:

Astronomy

Jan. 16, 2013 Rise Set
Actual Time 7:28 AM CST 4:36 PM CST
Civil Twilight 6:55 AM CST 5:09 PM CST
Nautical Twilight 6:18 AM CST 5:46 PM CST
Astronomical Twilight 5:43 AM CST 6:21 PM CST
Moon 9:45 AM CST (1/16) 10:49 PM CST (1/16)
Length of Visible Light 10h 13m
Length of Day
9h 07m
Waxing Crescent, 28% of the Moon is Illuminated
Jan 16
Waxing Crescent
Jan 18
First Quarter
Jan 26
Full
Feb 3
Last Quarter
Feb 10
New

Hourly Weather History & Observations

Time (CST) Temp. Windchill Dew Point Humidity Pressure Visibility Wind Dir Wind Speed Gust Speed Precip Events Conditions
12:54 AM 19.0 °F 8.2 °F 10.9 °F 71% 29.87 in 10.0 mi South 9.2 mph - N/A   Clear
2:54 AM 19.0 °F 7.5 °F 10.9 °F 71% 29.80 in 10.0 mi South 10.4 mph - N/A   Clear
3:54 AM 17.1 °F 4.3 °F 10.9 °F 77% 29.74 in 10.0 mi South 11.5 mph - N/A   Clear
4:54 AM 18.0 °F 4.8 °F 10.9 °F 74% 29.68 in 10.0 mi South 12.7 mph - N/A   Overcast
5:54 AM 19.9 °F 7.9 °F 10.9 °F 68% 29.64 in 10.0 mi South 11.5 mph - N/A   Overcast
6:49 AM 19.4 °F 6.6 °F 14.0 °F 80% 29.55 in 3.0 mi SSW 12.7 mph 19.6 mph 0.00 in Snow Light Snow
6:54 AM 19.9 °F 6.7 °F 14.0 °F 78% 29.61 in 2.5 mi South 13.8 mph - 0.00 in Snow Light Snow
7:05 AM 19.4 °F 6.0 °F 15.8 °F 86% 29.54 in 5.0 mi South 13.8 mph - 0.00 in Snow Light Snow
7:39 AM 21.2 °F 11.7 °F 15.8 °F 80% 29.55 in 1.8 mi SW 8.1 mph 17.3 mph 0.00 in Snow Light Snow
7:54 AM 21.0 °F 10.6 °F 17.1 °F 85% 29.62 in 2.5 mi SSW 9.2 mph - 0.00 in Snow Light Snow
8:02 AM 21.2 °F 11.7 °F 17.6 °F 86% 29.55 in 3.0 mi SSW 8.1 mph - 0.00 in Snow Light Snow
8:37 AM 21.2 °F 10.9 °F 17.6 °F 86% 29.55 in 2.0 mi SSW 9.2 mph - 0.00 in Snow Light Snow
8:49 AM 23.0 °F 13.9 °F 17.6 °F 80% 29.55 in 5.0 mi SW 8.1 mph - 0.00 in   Haze
8:54 AM 23.0 °F 14.7 °F 18.0 °F 81% 29.61 in 6.0 mi SW 6.9 mph - 0.00 in   Haze
9:13 AM 24.8 °F 13.4 °F 17.6 °F 74% 29.55 in 10.0 mi SW 12.7 mph - N/A   Overcast
9:54 AM 25.0 °F 13.1 °F 17.1 °F 72% 29.60 in 10.0 mi WSW 13.8 mph 19.6 mph N/A   Overcast
10:54 AM 26.1 °F 15.0 °F 19.0 °F 75% 29.61 in 10.0 mi West 12.7 mph 21.9 mph N/A   Overcast
11:54 AM 27.0 °F 16.1 °F 19.9 °F 75% 29.62 in 10.0 mi West 12.7 mph 20.7 mph N/A   Overcast
12:54 PM 28.0 °F 20.0 °F 21.0 °F 75% 29.62 in 10.0 mi West 8.1 mph 17.3 mph N/A   Overcast
1:54 PM 28.0 °F 17.5 °F 21.9 °F 78% 29.64 in 10.0 mi WNW 12.7 mph - N/A   Overcast
2:54 PM 28.9 °F 18.6 °F 21.9 °F 75% 29.69 in 10.0 mi WNW 12.7 mph - N/A   Overcast
3:54 PM 28.9 °F 18.6 °F 19.0 °F 67% 29.73 in 10.0 mi NW 12.7 mph 20.7 mph N/A   Overcast
4:54 PM 28.0 °F 16.5 °F 15.1 °F 58% 29.79 in 10.0 mi NNW 15.0 mph - N/A   Overcast
5:54 PM 24.1 °F 10.6 °F 10.9 °F 57% 29.86 in 10.0 mi NW 17.3 mph 24.2 mph N/A   Partly Cloudy
6:54 PM 21.9 °F 9.8 °F 8.1 °F 55% 29.92 in 10.0 mi NW 12.7 mph 19.6 mph N/A   Mostly Cloudy
7:54 PM 21.9 °F 11.0 °F 7.0 °F 53% 29.94 in 10.0 mi NW 10.4 mph 19.6 mph N/A   Overcast
8:54 PM 21.0 °F 8.1 °F 10.0 °F 63% 29.98 in 10.0 mi NW 13.8 mph - N/A   Overcast
9:11 PM 19.4 °F 4.5 °F 12.2 °F 74% 29.93 in 4.0 mi NW 17.3 mph - 0.00 in Snow Light Snow
9:31 PM 19.4 °F 6.0 °F 12.2 °F 74% 29.95 in 2.0 mi NW 13.8 mph 20.7 mph 0.00 in Snow Light Snow
9:37 PM 19.4 °F 7.2 °F 12.2 °F 74% 29.95 in 4.0 mi NW 11.5 mph - 0.00 in Snow Light Snow
9:54 PM 19.0 °F 6.8 °F 10.9 °F 71% 30.02 in 10.0 mi NW 11.5 mph - 0.00 in   Overcast
10:15 PM 17.6 °F 5.0 °F 12.2 °F 79% 29.96 in 2.5 mi WNW 11.5 mph 19.6 mph 0.00 in Snow Light Snow
10:23 PM 17.6 °F 5.0 °F 12.2 °F 79% 29.96 in 1.5 mi NW 11.5 mph - 0.00 in Snow Light Snow
10:30 PM 17.6 °F 3.2 °F 10.4 °F 73% 29.97 in 3.0 mi NW 15.0 mph - 0.00 in Snow Light Snow
10:54 PM 17.1 °F 4.3 °F 10.0 °F 74% 30.04 in 3.0 mi NW 11.5 mph - 0.00 in Snow Light Snow
11:08 PM 15.8 °F 5.1 °F 10.4 °F 79% 29.98 in 9.0 mi NW 8.1 mph - 0.00 in   Overcast
11:54 PM 16.0 °F 2.3 °F 7.0 °F 68% 30.05 in 10.0 mi North 12.7 mph - 0.00 in   Overcast